Time,TemperatureF,DewpointF,PressureIn,WindDirection,WindDirectionDegrees,WindSpeedMPH,WindSpeedGustMPH,Humidity,HourlyPrecipIn,Conditions,Clouds,dailyrainin,SoftwareType,DateUTC
2013-04-20 00:09:00,75.4,72.0,29.99,East,86,2.0,6.0,89,0.00,,,0.14,weatherlink.com 1.10,2013-04-20 04:09:00,
2013-04-20 00:24:00,75.6,72.0,29.99,SE,127,3.0,6.0,88,0.00,,,0.14,weatherlink.com 1.10,2013-04-20 04:24:00,
2013-04-20 00:39:00,75.7,72.0,29.98,ESE,122,3.0,5.0,89,0.01,,,0.15,weatherlink.com 1.10,2013-04-20 04:39:00,
2013-04-20 00:54:00,75.0,72.0,29.97,East,90,2.0,3.0,90,0.02,,,0.16,weatherlink.com 1.10,2013-04-20 04:54:00,
2013-04-20 01:09:00,75.6,72.0,29.97,ESE,107,4.0,9.0,87,0.02,,,0.16,weatherlink.com 1.10,2013-04-20 05:09:00,
2013-04-20 01:24:00,76.2,72.0,29.96,East,86,3.0,8.0,86,0.02,,,0.16,weatherlink.com 1.10,2013-04-20 05:24:00,
2013-04-20 01:39:00,75.9,72.0,29.95,ESE,123,1.0,4.0,88,0.01,,,0.16,weatherlink.com 1.10,2013-04-20 05:39:00,
2013-04-20 01:54:00,76.2,72.0,29.95,ENE,58,5.0,7.0,86,0.00,,,0.16,weatherlink.com 1.10,2013-04-20 05:54:00,
2013-04-20 02:09:00,76.2,72.0,29.95,SE,128,3.0,7.0,86,0.00,,,0.16,weatherlink.com 1.10,2013-04-20 06:09:00,
2013-04-20 02:24:00,76.0,72.0,29.95,ESE,110,0.0,4.0,88,0.00,,,0.16,weatherlink.com 1.10,2013-04-20 06:24:00,
2013-04-20 02:39:00,75.8,72.0,29.94,ENE,63,2.0,8.0,87,0.01,,,0.17,weatherlink.com 1.10,2013-04-20 06:39:00,
2013-04-20 02:54:00,76.0,71.0,29.94,East,100,5.0,8.0,85,0.01,,,0.17,weatherlink.com 1.10,2013-04-20 06:54:00,
2013-04-20 03:09:00,76.2,71.0,29.97,ESE,110,1.0,8.0,85,0.02,,,0.18,weatherlink.com 1.10,2013-04-20 07:09:00,
2013-04-20 03:24:00,76.2,72.0,29.94,ENE,76,4.0,6.0,86,0.02,,,0.18,weatherlink.com 1.10,2013-04-20 07:24:00,
2013-04-20 03:39:00,75.9,72.0,29.94,East,89,6.0,7.0,87,0.01,,,0.18,weatherlink.com 1.10,2013-04-20 07:39:00,
2013-04-20 03:54:00,75.8,72.0,29.92,East,90,2.0,7.0,87,0.01,,,0.18,weatherlink.com 1.10,2013-04-20 07:54:00,
2013-04-20 04:09:00,75.7,72.0,29.94,ESE,108,0.0,3.0,87,0.00,,,0.18,weatherlink.com 1.10,2013-04-20 08:09:00,
2013-04-20 04:24:00,75.5,72.0,29.95,SE,124,0.0,4.0,88,0.00,,,0.18,weatherlink.com 1.10,2013-04-20 08:24:00,
2013-04-20 04:39:00,75.4,72.0,29.94,SE,136,1.0,3.0,89,0.00,,,0.18,weatherlink.com 1.10,2013-04-20 08:39:00,
2013-04-20 04:54:00,74.9,72.0,29.95,SSE,152,1.0,4.0,90,0.01,,,0.19,weatherlink.com 1.10,2013-04-20 08:54:00,
2013-04-20 05:09:00,74.7,72.0,29.95,ESE,107,2.0,4.0,90,0.01,,,0.19,weatherlink.com 1.10,2013-04-20 09:09:00,
2013-04-20 05:24:00,75.0,72.0,29.95,SSE,159,1.0,3.0,89,0.01,,,0.19,weatherlink.com 1.10,2013-04-20 09:24:00,
2013-04-20 05:39:00,75.0,72.0,29.95,ESE,115,0.0,2.0,90,0.01,,,0.19,weatherlink.com 1.10,2013-04-20 09:39:00,
2013-04-20 05:54:00,74.9,72.0,29.96,ESE,105,1.0,2.0,89,0.00,,,0.19,weatherlink.com 1.10,2013-04-20 09:54:00,
2013-04-20 06:09:00,74.8,71.0,29.96,ESE,106,1.0,4.0,89,0.00,,,0.19,weatherlink.com 1.10,2013-04-20 10:09:00,
2013-04-20 06:24:00,75.1,71.0,29.97,East,98,0.0,4.0,88,0.00,,,0.19,weatherlink.com 1.10,2013-04-20 10:24:00,
2013-04-20 06:39:00,75.4,71.0,29.97,ESE,117,1.0,4.0,87,0.00,,,0.19,weatherlink.com 1.10,2013-04-20 10:39:00,
2013-04-20 06:54:00,75.9,72.0,29.97,ESE,120,3.0,7.0,86,0.00,,,0.19,weatherlink.com 1.10,2013-04-20 10:54:00,
2013-04-20 07:09:00,76.3,72.0,29.98,ESE,103,0.0,4.0,85,0.00,,,0.19,weatherlink.com 1.10,2013-04-20 11:09:00,
2013-04-20 07:25:00,76.7,72.0,29.99,SE,139,0.0,1.0,86,0.00,,,0.19,weatherlink.com 1.10,2013-04-20 11:25:00,
2013-04-20 07:39:00,76.9,73.0,29.99,East,85,1.0,3.0,86,0.00,,,0.19,weatherlink.com 1.10,2013-04-20 11:39:00,
2013-04-20 07:54:00,77.4,72.0,30.00,East,84,3.0,6.0,83,0.00,,,0.19,weatherlink.com 1.10,2013-04-20 11:54:00,
2013-04-20 08:09:00,77.9,71.0,29.99,East,93,4.0,7.0,80,0.00,,,0.19,weatherlink.com 1.10,2013-04-20 12:09:00,
2013-04-20 08:24:00,78.2,72.0,30.00,ENE,75,3.0,8.0,80,0.00,,,0.19,weatherlink.com 1.10,2013-04-20 12:24:00,
2013-04-20 08:39:00,78.4,71.0,30.00,ESE,113,2.0,7.0,79,0.00,,,0.19,weatherlink.com 1.10,2013-04-20 12:39:00,
2013-04-20 08:54:00,76.9,73.0,30.01,ESE,102,4.0,11.0,86,0.02,,,0.21,weatherlink.com 1.10,2013-04-20 12:54:00,
2013-04-20 09:09:00,77.2,73.0,30.01,ENE,58,2.0,3.0,87,0.02,,,0.21,weatherlink.com 1.10,2013-04-20 13:09:00,
2013-04-20 09:24:00,78.1,73.0,30.02,East,79,3.0,7.0,83,0.02,,,0.21,weatherlink.com 1.10,2013-04-20 13:24:00,
2013-04-20 09:39:00,79.0,73.0,30.02,East,88,5.0,7.0,81,0.02,,,0.21,weatherlink.com 1.10,2013-04-20 13:39:00,
2013-04-20 09:54:00,79.4,72.0,30.02,East,91,3.0,15.0,79,0.00,,,0.21,weatherlink.com 1.10,2013-04-20 13:54:00,
2013-04-20 10:09:00,79.8,72.0,30.01,East,79,6.0,16.0,77,0.00,,,0.21,weatherlink.com 1.10,2013-04-20 14:09:00,
2013-04-20 10:24:00,80.3,71.0,30.02,ESE,104,5.0,14.0,74,0.00,,,0.21,weatherlink.com 1.10,2013-04-20 14:24:00,
2013-04-20 10:39:00,80.8,72.0,30.01,East,80,7.0,12.0,74,0.00,,,0.21,weatherlink.com 1.10,2013-04-20 14:39:00,
2013-04-20 10:54:00,81.6,73.0,30.01,ENE,61,2.0,12.0,76,0.00,,,0.21,weatherlink.com 1.10,2013-04-20 14:54:00,
2013-04-20 11:09:00,81.3,72.0,30.00,East,95,6.0,12.0,74,0.00,,,0.21,weatherlink.com 1.10,2013-04-20 15:09:00,
2013-04-20 11:24:00,81.1,73.0,30.00,East,100,4.0,12.0,76,0.00,,,0.00,weatherlink.com 1.10,2013-04-20 15:24:00,
2013-04-20 11:39:00,80.5,73.0,30.01,East,86,6.0,11.0,79,0.00,,,0.00,weatherlink.com 1.10,2013-04-20 15:39:00,
2013-04-20 11:55:00,79.6,71.0,29.99,East,82,7.0,15.0,75,0.00,,,0.00,weatherlink.com 1.10,2013-04-20 15:55:00,
2013-04-20 12:10:00,79.6,72.0,29.99,SSE,150,7.0,13.0,77,0.00,,,0.00,weatherlink.com 1.10,2013-04-20 16:10:00,
2013-04-20 12:25:00,79.3,71.0,29.99,East,83,6.0,16.0,75,0.00,,,0.00,weatherlink.com 1.10,2013-04-20 16:25:00,
2013-04-20 12:40:00,78.0,72.0,29.99,ESE,117,2.0,6.0,82,0.00,,,0.00,weatherlink.com 1.10,2013-04-20 16:40:00,
2013-04-20 12:55:00,78.4,72.0,29.98,ESE,105,1.0,8.0,81,0.00,,,0.00,weatherlink.com 1.10,2013-04-20 16:55:00,
2013-04-20 13:10:00,79.6,71.0,29.98,ENE,76,5.0,12.0,75,0.00,,,0.00,weatherlink.com 1.10,2013-04-20 17:10:00,
2013-04-20 13:25:00,80.4,71.0,29.97,NE,53,12.0,14.0,73,0.00,,,0.00,weatherlink.com 1.10,2013-04-20 17:25:00,
2013-04-20 13:40:00,80.5,71.0,29.97,ENE,78,6.0,13.0,73,0.00,,,0.00,weatherlink.com 1.10,2013-04-20 17:40:00,
2013-04-20 13:55:00,81.0,71.0,29.96,ENE,73,4.0,8.0,72,0.00,,,0.00,weatherlink.com 1.10,2013-04-20 17:55:00,
2013-04-20 14:10:00,81.2,70.0,29.96,NE,43,2.0,11.0,69,0.00,,,0.00,weatherlink.com 1.10,2013-04-20 18:10:00,
2013-04-20 14:25:00,81.2,70.0,29.95,ENE,75,6.0,10.0,69,0.00,,,0.00,weatherlink.com 1.10,2013-04-20 18:25:00,
2013-04-20 14:40:00,81.3,70.0,29.94,ENE,70,12.0,12.0,69,0.00,,,0.00,weatherlink.com 1.10,2013-04-20 18:40:00,
2013-04-20 14:55:00,80.9,72.0,29.93,ENE,66,8.0,11.0,73,0.00,,,0.00,weatherlink.com 1.10,2013-04-20 18:55:00,
2013-04-20 15:10:00,79.8,71.0,29.93,ENE,58,7.0,10.0,75,0.00,,,0.00,weatherlink.com 1.10,2013-04-20 19:10:00,
2013-04-20 15:25:00,79.8,72.0,29.93,East,90,4.0,14.0,77,0.00,,,0.00,weatherlink.com 1.10,2013-04-20 19:25:00,
2013-04-20 15:40:00,79.1,71.0,29.93,East,83,14.0,14.0,77,0.00,,,0.00,weatherlink.com 1.10,2013-04-20 19:40:00,
2013-04-20 15:55:00,78.7,72.0,29.93,NE,53,5.0,11.0,79,0.00,,,0.00,weatherlink.com 1.10,2013-04-20 19:55:00,
2013-04-20 16:10:00,76.4,72.0,29.93,ESE,112,4.0,11.0,85,0.02,,,0.02,weatherlink.com 1.10,2013-04-20 20:10:00,
2013-04-20 16:25:00,75.3,72.0,29.94,SE,130,2.0,3.0,89,0.03,,,0.03,weatherlink.com 1.10,2013-04-20 20:25:00,
2013-04-20 16:40:00,75.6,72.0,29.93,SSE,165,1.0,4.0,89,0.03,,,0.03,weatherlink.com 1.10,2013-04-20 20:40:00,
2013-04-20 16:56:00,75.8,73.0,29.93,ESE,120,3.0,5.0,90,0.03,,,0.03,weatherlink.com 1.10,2013-04-20 20:56:00,
2013-04-20 17:11:00,76.0,73.0,29.93,ESE,121,0.0,4.0,90,0.00,,,0.03,weatherlink.com 1.10,2013-04-20 21:11:00,
2013-04-20 17:27:00,76.3,73.0,29.93,SE,128,1.0,7.0,89,0.00,,,0.03,weatherlink.com 1.10,2013-04-20 21:27:00,
2013-04-20 17:41:00,76.4,73.0,29.93,ESE,107,1.0,3.0,88,0.00,,,0.03,weatherlink.com 1.10,2013-04-20 21:41:00,
2013-04-20 17:57:00,76.2,73.0,29.94,SE,131,1.0,3.0,89,0.00,,,0.03,weatherlink.com 1.10,2013-04-20 21:57:00,
2013-04-20 18:11:00,76.2,73.0,29.95,ESE,107,1.0,3.0,89,0.00,,,0.03,weatherlink.com 1.10,2013-04-20 22:11:00,
2013-04-20 18:27:00,76.9,72.0,29.95,ENE,63,3.0,6.0,84,0.00,,,0.03,weatherlink.com 1.10,2013-04-20 22:27:00,
2013-04-20 18:41:00,75.8,71.0,29.95,ENE,71,5.0,13.0,85,0.02,,,0.05,weatherlink.com 1.10,2013-04-20 22:41:00,
2013-04-20 18:57:00,74.6,72.0,29.96,South,174,2.0,4.0,90,0.03,,,0.06,weatherlink.com 1.10,2013-04-20 22:57:00,
2013-04-20 19:11:00,74.4,72.0,29.96,East,100,1.0,3.0,91,0.03,,,0.06,weatherlink.com 1.10,2013-04-20 23:11:00,
2013-04-20 19:26:00,74.3,72.0,29.97,SE,133,1.0,1.0,91,0.03,,,0.06,weatherlink.com 1.10,2013-04-20 23:26:00,
2013-04-20 19:41:00,74.2,72.0,29.98,ESE,122,2.0,2.0,91,0.01,,,0.06,weatherlink.com 1.10,2013-04-20 23:41:00,
2013-04-20 19:56:00,73.9,71.0,29.98,SE,132,0.0,1.0,91,0.00,,,0.06,weatherlink.com 1.10,2013-04-20 23:56:00,
2013-04-20 20:11:00,73.8,71.0,29.99,SE,128,0.0,1.0,91,0.00,,,0.06,weatherlink.com 1.10,2013-04-21 00:11:00,
2013-04-20 20:26:00,73.8,71.0,29.99,ESE,123,0.0,1.0,91,0.00,,,0.06,weatherlink.com 1.10,2013-04-21 00:26:00,
2013-04-20 20:41:00,74.1,71.0,29.99,ESE,122,0.0,1.0,91,0.00,,,0.06,weatherlink.com 1.10,2013-04-21 00:41:00,
2013-04-20 20:56:00,74.0,71.0,29.99,SE,129,0.0,1.0,91,0.00,,,0.06,weatherlink.com 1.10,2013-04-21 00:56:00,
2013-04-20 21:11:00,73.9,72.0,30.00,SW,214,0.0,1.0,92,0.00,,,0.06,weatherlink.com 1.10,2013-04-21 01:11:00,
2013-04-20 21:26:00,74.0,71.0,30.00,ESE,117,1.0,2.0,91,0.00,,,0.06,weatherlink.com 1.10,2013-04-21 01:26:00,
2013-04-20 21:41:00,74.0,71.0,30.00,East,100,0.0,1.0,91,0.00,,,0.06,weatherlink.com 1.10,2013-04-21 01:41:00,
2013-04-20 21:56:00,73.8,71.0,30.00,East,100,0.0,1.0,91,0.00,,,0.06,weatherlink.com 1.10,2013-04-21 01:56:00,
2013-04-20 22:11:00,74.1,72.0,30.00,ESE,120,1.0,2.0,92,0.00,,,0.06,weatherlink.com 1.10,2013-04-21 02:11:00,
2013-04-20 22:26:00,74.2,72.0,30.01,SE,139,0.0,2.0,91,0.00,,,0.06,weatherlink.com 1.10,2013-04-21 02:26:00,
2013-04-20 22:41:00,74.4,71.0,30.00,SE,136,0.0,2.0,90,0.00,,,0.06,weatherlink.com 1.10,2013-04-21 02:41:00,
2013-04-20 22:56:00,74.3,71.0,30.01,SSW,195,0.0,1.0,90,0.00,,,0.06,weatherlink.com 1.10,2013-04-21 02:56:00,
2013-04-20 23:11:00,74.5,71.0,30.01,SE,136,0.0,2.0,89,0.00,,,0.06,weatherlink.com 1.10,2013-04-21 03:11:00,
2013-04-20 23:26:00,74.5,71.0,30.00,SE,134,0.0,1.0,89,0.00,,,0.06,weatherlink.com 1.10,2013-04-21 03:26:00,
2013-04-20 23:41:00,74.5,71.0,29.99,SE,134,0.0,1.0,89,0.00,,,0.06,weatherlink.com 1.10,2013-04-21 03:41:00,
2013-04-20 23:56:00,74.5,71.0,30.00,SE,127,0.0,1.0,89,0.00,,,0.06,weatherlink.com 1.10,2013-04-21 03:56:00,